[[{"header":{"parameterUnit":"m.s-1","parameterCategory":1,"la1":30.2991,"la2":30.254,"lo1":-89.0895,"lo2":-89.0444,"dy":0.0017,"dx":0.0017,"nx":28,"ny":28,"refTime":"2024-10-04T21:00:00:Z","depth":0,"parameterNumber":2,"parameterNumberName":"U-component_of_WINDS"},"data":[0,0,0,0,0,0,0,0,0,0,0,0,0,0,0,0,0,0,0,0,0,0,0,0,0,0,0,0,0,0,0,0,0,0,0,0,0,0,0,0,0,0,0,0,0,0,0,0,0,0,0,0,0,0,0,0,0,0,-3.1286,-3.1286,0,-3.1245,-3.1244,-3.1244,-3.1094,-3.109,-3.1087,-3.1084,-3.1047,-3.1049,-3.1051,0,0,0,0,0,0,0,0,0,0,0,0,0,-3.1241,-3.1242,-3.1286,-3.1286,-3.1285,-3.1245,-3.1244,-3.1244,-3.1094,-3.109,-3.1086,-3.1082,-3.1046,-3.1049,-3.1051,0,0,0,0,0,0,0,0,0,0,0,0,0,-3.1236,-3.1243,-3.1286,-3.1206,-3.1198,-3.1245,-3.1244,-3.1243,-3.1095,-3.109,-3.1085,-3.108,-3.1045,-3.1049,-3.1052,-3.1175,0,0,-3.1062,-3.1063,0,0,0,0,0,0,0,0,-3.1237,-3.1238,-3.1218,-3.1211,-3.1203,-3.1169,-3.1214,-3.1221,-3.1097,-3.1135,-3.1084,-3.1078,-3.1092,-3.1091,-3.1095,-3.1173,-3.1171,-3.1062,-3.1064,-3.1066,-3.1067,0,0,0,0,0,0,0,-3.1237,-3.1239,-3.127,-3.1218,-3.1209,-3.1173,-3.1167,-3.1215,-3.1143,-3.1131,-3.112,-3.1117,-3.1087,-3.1092,-3.1093,-3.1171,-3.1062,-3.1065,-3.1067,-3.1068,-3.1348,-3.1354,0,0,0,0,0,0,-3.1248,-3.124,-3.1271,-3.1269,-3.1207,-3.1178,-3.1171,-3.1185,-3.1142,-3.113,-3.1121,-3.111,-3.1089,-3.1089,-3.1091,-3.1233,-3.1066,-3.1069,-3.1071,-3.1343,-3.135,-3.1356,0,0,0,0,0,0,-3.1248,-3.1252,-3.1273,-3.1251,-3.1251,-3.1184,-3.1201,-3.1187,-3.1192,-3.1134,-3.1121,-3.1139,-3.1085,-3.1086,-3.1155,-3.123,-3.107,-3.1073,-3.1337,-3.1345,-3.1353,-3.1519,0,0,0,0,0,0,-3.1247,-3.1253,-3.1299,-3.1253,-3.1253,-3.1337,-3.1206,-3.119,-3.1197,-3.1182,-3.1148,-3.1137,-3.1081,-3.1151,-3.1158,-3.1232,-3.1076,-3.133,-3.134,-3.135,-3.1507,-3.1532,-3.1554,0,0,0,0,0,-3.1246,-3.1348,-3.1302,-3.1306,-3.1308,-3.1341,-3.1341,-3.1273,-3.1204,-3.125,-3.1212,-3.1138,-3.122,-3.1159,-3.1166,-3.1242,-3.1325,-3.1337,-3.1349,-3.1496,-3.1527,-3.1553,0,0,0,0,0,0,-3.1407,-3.1341,-3.1289,-3.1379,-3.1367,-3.1316,-3.1372,-3.1307,-3.1316,-3.1302,-3.1217,-3.1211,-3.1292,-3.1273,-3.1207,-3.1359,-3.126,-3.1274,-3.1369,-3.1398,-3.1421,-3.1426,-3.1079,0,0,0,0,0,-3.1452,-3.1483,-3.1424,-3.151,-3.1506,-3.144,-3.1452,-3.14,-3.1385,-3.138,-3.1347,-3.1337,-3.1359,-3.1377,-3.1395,-3.1501,-3.1493,-3.1557,-3.158,-3.16,-3.1615,-3.1671,-3.17,-3.1396,-3.1396,-3.1396,0,0,-3.1548,-3.1515,-3.1541,-3.1541,-3.1526,-3.1561,-3.1437,-3.148,-3.1507,-3.1386,-3.1449,-3.1425,-3.1408,-3.1496,-3.1534,-3.1483,-3.1696,-3.1616,-3.1632,-3.1636,-3.1687,-3.1716,-3.1741,-3.1404,-3.1403,-3.1401,0,0,-3.174,-3.1718,-3.1787,-3.1773,-3.175,-3.1705,-3.1721,-3.168,-3.1659,-3.1719,-3.163,-3.1661,-3.1702,-3.1693,-3.1695,-3.1881,-3.1815,-3.1889,-3.2014,-3.207,-3.2094,-3.2114,-3.2184,-3.2209,-3.1903,-3.1903,-3.1904,0,-3.1863,-3.1911,-3.1831,-3.188,-3.1884,-3.1773,-3.1843,-3.1834,-3.1819,-3.1825,-3.1767,-3.1816,-3.1796,-3.1882,-3.1928,-3.1931,-3.195,-3.1895,-3.2096,-3.2116,-3.2135,-3.22,-3.2226,-3.1913,-3.1912,-3.1911,-3.191,0,-3.2064,-3.2099,-3.2158,-3.2144,-3.2153,-3.2213,-3.2143,-3.2163,-3.2109,-3.207,-3.2134,-3.2106,-3.2117,-3.2132,-3.2081,-3.2211,-3.218,-3.2111,-3.201,-3.2174,-3.2235,-3.2259,-3.1927,-3.1923,-3.192,-3.1918,0,0,-3.2362,-3.2299,-3.2323,-3.2315,-3.228,-3.2307,-3.2361,-3.2368,-3.2388,-3.238,-3.2426,-3.2462,-3.2396,-3.2398,-3.2344,-3.2393,-3.2545,-3.2316,-3.2315,-3.2363,-3.269,-3.2745,-3.2775,-3.2498,-3.2503,-3.2506,-3.2692,0,-3.2547,-3.2635,-3.2563,-3.2666,-3.2698,-3.2592,-3.2639,-3.2624,-3.2589,-3.2612,-3.2573,-3.2601,-3.2511,-3.2512,-3.2555,-3.2518,-3.261,-3.2503,-3.2543,-3.2546,-3.2555,-3.2806,-3.2865,-3.3042,-3.2715,-3.2719,-3.2721,0,-3.2776,-3.2777,-3.2882,-3.2839,-3.285,-3.2894,-3.2895,-3.2917,-3.2898,-3.2869,-3.287,-3.2802,-3.2854,-3.2752,-3.2824,-3.2752,-3.2764,-3.2748,-3.2753,-3.2758,-3.2647,-3.2821,-3.3097,-3.3125,-3.2757,-3.2754,-3.2752,0,-3.2987,-3.3013,-3.3079,-3.3075,-3.3026,-3.306,-3.3042,-3.3016,-3.3025,-3.3027,-3.3032,-3.304,-3.3046,-3.3055,-3.2992,-3.2923,-3.3073,-3.2965,-3.3053,-3.3055,-3.3093,-3.3092,-3.3378,-3.3094,-3.3094,-3.3093,-3.3093,0,-3.3204,-3.3273,-3.3173,-3.3215,-3.3289,-3.3205,-3.3282,-3.3252,-3.323,-3.3266,-3.3173,-3.3209,-3.3121,-3.3148,-3.3099,-3.3167,-3.317,-3.315,-3.3137,-3.316,-3.3164,-3.317,-3.3158,-3.31,-3.3099,-3.3097,-3.3096,0,-3.3454,-3.3389,-3.3454,-3.3401,-3.3389,-3.3447,-3.3402,-3.3439,-3.3396,-3.3442,-3.3447,-3.3381,-3.3408,-3.3344,-3.3362,-3.3329,-3.3427,-3.3393,-3.3434,-3.3425,-3.3518,-3.3512,-3.3821,-3.3859,-3.3548,-3.3551,-3.3553,0,-3.3599,-3.3649,-3.36,-3.3616,-3.3601,-3.3628,-3.3636,-3.3555,-3.3568,-3.3548,-3.3588,-3.3606,-3.3616,-3.3664,-3.3619,-3.3632,-3.3599,-3.3707,-3.3601,-3.3624,-3.3605,-3.3605,-3.3611,-3.3731,-3.3734,-3.3737,-3.374,0,-3.3864,-3.3829,-3.3843,-3.3846,-3.3857,-3.3857,-3.3849,-3.3868,-3.3781,-3.38,-3.3825,-3.3833,-3.3849,-3.387,-3.3872,-3.3854,-3.3785,-3.3772,-3.3794,-3.3821,-3.3845,-3.3837,-3.3498,-3.3767,-3.3764,-3.3762,-3.3761,-3.376,-3.4068,-3.4108,-3.408,-3.4098,-3.4083,-3.4078,-3.411,-3.407,-3.4088,-3.4094,-3.4045,-3.4081,-3.4059,-3.4054,-3.4044,-3.4072,-3.4024,-3.4054,-3.4063,-3.4073,-3.4089,-3.3836,-3.4072,-3.4071,-3.407,-3.4069,-3.4069,0,-3.4332,-3.4307,-3.4325,-3.4316,-3.4331,-3.4259,-3.4246,-3.4265,-3.4297,-3.4281,-3.4292,-3.4321,-3.4339,-3.4294,-3.4307,-3.4338,-3.4306,-3.4344,-3.4344,-3.4341,-3.413,-3.4112,-3.437,-3.437,-3.437,-3.437,-3.4369,-3.4369,-3.4471,-3.4535,-3.4496,-3.4553,-3.4527,-3.456,-3.4559,-3.4555,-3.4541,-3.4577,-3.4591,-3.456,-3.4533,-3.4542,-3.4557,-3.4543,-3.4554,-3.4604,-3.458,-3.4385,-3.4356,-3.4328,-3.431,-3.4606,-3.4606,-3.4788,-3.479,-3.4791]},{"header":{"parameterUnit":"m.s-1","parameterCategory":1,"la1":30.2991,"la2":30.254,"lo1":-89.0895,"lo2":-89.0444,"dy":0.0017,"dx":0.0017,"nx":28,"ny":28,"refTime":"2024-10-04T21:00:00:Z","depth":0,"parameterNumber":3,"parameterNumberName":"V-component_of_WINDS"},"data":[0,0,0,0,0,0,0,0,0,0,0,0,0,0,0,0,0,0,0,0,0,0,0,0,0,0,0,0,0,0,0,0,0,0,0,0,0,0,0,0,0,0,0,0,0,0,0,0,0,0,0,0,0,0,0,0,0,0,-3.197,-3.197,0,-3.1987,-3.1987,-3.1987,-3.1969,-3.1968,-3.1968,-3.1967,-3.1982,-3.1983,-3.1984,0,0,0,0,0,0,0,0,0,0,0,0,0,-3.1919,-3.192,-3.197,-3.197,-3.197,-3.1987,-3.1987,-3.1987,-3.1969,-3.1968,-3.1967,-3.1967,-3.1982,-3.1983,-3.1984,0,0,0,0,0,0,0,0,0,0,0,0,0,-3.1939,-3.192,-3.197,-3.1963,-3.1963,-3.1987,-3.1987,-3.1987,-3.1969,-3.1968,-3.1967,-3.1966,-3.1982,-3.1983,-3.1985,-3.2015,0,0,-3.1989,-3.199,0,0,0,0,0,0,0,0,-3.1938,-3.1941,-3.1964,-3.1964,-3.1963,-3.1975,-3.1975,-3.1996,-3.1969,-3.1967,-3.1967,-3.1966,-3.198,-3.1982,-3.1987,-3.2016,-3.2016,-3.199,-3.1991,-3.1991,-3.1992,0,0,0,0,0,0,0,-3.1937,-3.194,-3.1976,-3.1964,-3.1964,-3.1959,-3.196,-3.1979,-3.1979,-3.1967,-3.1966,-3.1968,-3.198,-3.1986,-3.1988,-3.2017,-3.199,-3.1991,-3.1992,-3.1993,-3.2069,-3.207,0,0,0,0,0,0,-3.1936,-3.1939,-3.1976,-3.1977,-3.1948,-3.196,-3.1962,-3.1972,-3.1979,-3.1979,-3.1969,-3.1967,-3.1984,-3.1986,-3.1988,-3.2023,-3.1991,-3.1993,-3.1994,-3.2068,-3.2069,-3.207,0,0,0,0,0,0,-3.1935,-3.194,-3.1975,-3.1958,-3.1962,-3.1962,-3.1973,-3.1973,-3.1979,-3.198,-3.198,-3.1975,-3.1983,-3.1986,-3.2008,-3.2023,-3.1993,-3.1995,-3.2067,-3.2068,-3.207,-3.2093,0,0,0,0,0,0,-3.1934,-3.1939,-3.1952,-3.1958,-3.1963,-3.1996,-3.1974,-3.1974,-3.1982,-3.198,-3.1986,-3.1986,-3.1982,-3.2006,-3.201,-3.2025,-3.1996,-3.2065,-3.2067,-3.2069,-3.2091,-3.2095,-3.2099,0,0,0,0,0,-3.1932,-3.1958,-3.1952,-3.1957,-3.1978,-3.1997,-3.1999,-3.1995,-3.1983,-3.1995,-3.1996,-3.1986,-3.2021,-3.2008,-3.2013,-3.2028,-3.2064,-3.2067,-3.2069,-3.2089,-3.2095,-3.2099,0,0,0,0,0,0,-3.1952,-3.1958,-3.1953,-3.1981,-3.1989,-3.1994,-3.2008,-3.2001,-3.2012,-3.2009,-3.2003,-3.2005,-3.2028,-3.2031,-3.2016,-3.2057,-3.2041,-3.2044,-3.2055,-3.206,-3.2064,-3.2062,-3.1997,0,0,0,0,0,-3.196,-3.1976,-3.198,-3.2004,-3.2008,-3.2008,-3.2016,-3.2012,-3.2019,-3.2022,-3.2024,-3.2031,-3.2044,-3.2052,-3.2064,-3.2092,-3.2092,-3.2105,-3.2109,-3.2112,-3.2114,-3.2128,-3.2133,-3.2078,-3.2078,-3.2078,0,0,-3.1977,-3.1982,-3.1992,-3.2008,-3.2014,-3.2029,-3.201,-3.2027,-3.2038,-3.2024,-3.2045,-3.2047,-3.2054,-3.2079,-3.2091,-3.2082,-3.213,-3.2115,-3.2118,-3.2118,-3.2131,-3.2136,-3.2141,-3.208,-3.208,-3.2079,0,0,-3.2013,-3.202,-3.204,-3.2046,-3.2054,-3.2053,-3.2058,-3.2064,-3.2065,-3.2086,-3.2076,-3.2088,-3.211,-3.2115,-3.2121,-3.2159,-3.215,-3.2163,-3.2184,-3.2197,-3.2201,-3.2205,-3.2217,-3.2222,-3.2166,-3.2166,-3.2166,0,-3.2032,-3.2055,-3.2051,-3.2068,-3.2075,-3.2064,-3.2084,-3.209,-3.2101,-3.2106,-3.2097,-3.2123,-3.2128,-3.2153,-3.2162,-3.2167,-3.2172,-3.2162,-3.2201,-3.2205,-3.2208,-3.2219,-3.2224,-3.2167,-3.2167,-3.2167,-3.2167,0,-3.2077,-3.2093,-3.2108,-3.212,-3.2129,-3.2147,-3.2145,-3.2155,-3.215,-3.215,-3.2171,-3.2175,-3.2187,-3.2193,-3.2189,-3.2217,-3.2212,-3.2202,-3.2185,-3.2215,-3.2225,-3.223,-3.2169,-3.2169,-3.2168,-3.2168,0,0,-3.2127,-3.2136,-3.2141,-3.2146,-3.2154,-3.2166,-3.2183,-3.2195,-3.2202,-3.2211,-3.2224,-3.2243,-3.2234,-3.224,-3.2236,-3.2248,-3.2276,-3.2236,-3.2236,-3.2242,-3.2306,-3.2312,-3.2317,-3.227,-3.2271,-3.2272,-3.2305,0,-3.2162,-3.2193,-3.219,-3.2219,-3.2232,-3.2222,-3.2237,-3.2243,-3.2243,-3.2254,-3.2255,-3.2267,-3.2255,-3.2258,-3.227,-3.227,-3.2288,-3.2268,-3.2282,-3.2282,-3.2279,-3.2323,-3.233,-3.2361,-3.2309,-3.231,-3.231,0,-3.2208,-3.2218,-3.2248,-3.2253,-3.2259,-3.2273,-3.2283,-3.2294,-3.23,-3.2299,-3.2306,-3.23,-3.2316,-3.23,-3.2322,-3.2308,-3.2314,-3.2315,-3.2316,-3.2316,-3.2297,-3.2323,-3.2371,-3.2375,-3.2317,-3.2317,-3.2316,0,-3.2239,-3.226,-3.2281,-3.2285,-3.2292,-3.2302,-3.2305,-3.231,-3.2317,-3.2326,-3.233,-3.2341,-3.2346,-3.2354,-3.235,-3.2339,-3.2372,-3.2356,-3.2371,-3.2371,-3.2377,-3.2376,-3.2425,-3.2383,-3.2383,-3.2383,-3.2383,0,-3.2279,-3.2297,-3.2295,-3.2307,-3.2327,-3.2323,-3.2343,-3.2344,-3.2349,-3.2361,-3.2353,-3.2364,-3.2359,-3.237,-3.2367,-3.2385,-3.2388,-3.2387,-3.2386,-3.2387,-3.2387,-3.2389,-3.2386,-3.2384,-3.2384,-3.2384,-3.2384,0,-3.2316,-3.2316,-3.2337,-3.2342,-3.2343,-3.2358,-3.2361,-3.2372,-3.2372,-3.2387,-3.239,-3.239,-3.2402,-3.2399,-3.2412,-3.2411,-3.2432,-3.2429,-3.243,-3.2429,-3.2443,-3.2441,-3.2494,-3.25,-3.2456,-3.2456,-3.2457,0,-3.2341,-3.2355,-3.2361,-3.2368,-3.2372,-3.2385,-3.2391,-3.2388,-3.2395,-3.2403,-3.2413,-3.2424,-3.2433,-3.2452,-3.2453,-3.2462,-3.2459,-3.2476,-3.246,-3.246,-3.2457,-3.2455,-3.2456,-3.2479,-3.248,-3.248,-3.248,0,-3.2384,-3.2383,-3.2393,-3.2404,-3.2412,-3.242,-3.2427,-3.2434,-3.243,-3.2439,-3.2451,-3.2458,-3.2471,-3.2482,-3.2491,-3.2494,-3.2486,-3.2486,-3.2489,-3.249,-3.2489,-3.2488,-3.2437,-3.2484,-3.2484,-3.2483,-3.2483,-3.2483,-3.2414,-3.2426,-3.2432,-3.2443,-3.2448,-3.2455,-3.2465,-3.2466,-3.2477,-3.2487,-3.2484,-3.2498,-3.2503,-3.2514,-3.2518,-3.2527,-3.2521,-3.2527,-3.2528,-3.2529,-3.253,-3.2489,-3.2529,-3.2529,-3.2529,-3.2529,-3.2529,0,-3.2455,-3.2459,-3.247,-3.248,-3.2489,-3.2482,-3.2489,-3.2497,-3.2509,-3.2514,-3.2523,-3.2536,-3.2547,-3.2548,-3.2557,-3.2565,-3.2562,-3.2568,-3.2566,-3.2566,-3.2536,-3.2531,-3.257,-3.257,-3.257,-3.257,-3.257,-3.257,-3.2478,-3.2496,-3.2496,-3.2516,-3.2519,-3.2532,-3.2536,-3.2542,-3.2546,-3.2562,-3.257,-3.2571,-3.2575,-3.2584,-3.2593,-3.2593,-3.2596,-3.2603,-3.2602,-3.2573,-3.2569,-3.2565,-3.256,-3.2604,-3.2604,-3.2631,-3.2631,-3.2632]}]]